Location: Newark
(40.3500°N, 15.2333°E)
Time: 05:27:47
(UTC+00:00)

Altair - Pass Details

Date: 18 January 2020
Orbit: 1502 x 1682 km, 47.2° (Epoch: 19 February)

Event Time Altitude Azimuth Distance (km) Brightness Sun altitude
Rises 06:37:42 0° 178° (S) 4,863 10.6 2.3°
Reaches altitude 10° 06:42:19 10° 160° (SSE) 3,905 10.6 3.1°
Maximum altitude 06:48:10 17° 123° (ESE) 3,376 11.4 4.0°
Drops below altitude 10° 06:54:02 10° 87° (E) 3,945 10.7 5.0°
Sets 06:58:40 0° 69° (ENE) 4,934 10.7 5.7°
